[Iaude] MPEC V31: 1999 TJ10 = 2023 RU4 [a=1.68, e=0.37, i=19.4, H=20.95]
    mpec at marsden.cfa.harvard.edu 
    mpec at marsden.cfa.harvard.edu
       
    Sat Nov  4 12:00:25 EDT 2023
    
    
  
M.P.E.C. 2023-V31                              Issued 2023 November 4, 15:56 UT
     The Minor Planet Electronic Circulars contain information on unusual
         minor planets, routine data on comets and natural satellites,
         and occasional editorial announcements.  They are published
    on behalf of Division F of the International Astronomical Union by the
          Minor Planet Center, Smithsonian Astrophysical Observatory,
                          Cambridge, MA 02138, U.S.A.
			  
             Prepared using the Tamkin Foundation Computer Network
                              MPC at CFA.HARVARD.EDU
            URL https://www.minorplanetcenter.net/    ISSN 1523-6714
                              1999 TJ10 = 2023 RU4                              
                           Revision to MPEC 2023-R137
Additional Observations:
     J99T10J  C2011 03 31.35698 11 41 48.745-05 50 49.11         21.7 wLEV031F51
     J99T10J  C2011 03 31.37250 11 41 48.063-05 50 16.46         21.6 wLEV031F51
     J99T10J  C2011 03 31.38906 11 41 47.332-05 49 41.54         21.8 wLEV031F51
     J99T10J  C2011 04 05.24841 11 39 07.56 -03 07 44.5          21.0 VrEV031G96
     J99T10J  C2011 04 05.25598 11 39 07.34 -03 07 29.9          22.5 VrEV031G96
     J99T10J  C2011 04 05.26338 11 39 07.09 -03 07 16.3          22.0 VrEV031G96
     J99T10J  C2011 04 05.27090 11 39 06.84 -03 07 01.8          21.6 VrEV031G96
Observer details:
F51 Pan-STARRS 1, Haleakala.  Observers N. Primak, A. Schultz, S. Watters, J.
    Thiel, T. Goggia.  Measurer P.-S. 1. S. Consortium.  1.8-m Ritchey-
    Chretien + CCD.
G96 Mt. Lemmon Survey.  Observer A. R. Gibbs.  Measurers J. D. Ahern, E. C.
    Beshore, A. Boattini, G. J. Garradd, A. R. Gibbs, A. D. Grauer, R. E.
    Hill, R. A. Kowalski, S. M. Larson, R. H. McNaught.  1.5-m reflector +
    CCD.
Orbital elements:
1999 TJ10 = 2023 RU4                                     Earth MOID = 0.2190 AU
Id. A. Lowe
Epoch 2023 Sept. 13.0 TT = JDT 2460200.5                Veres                   
M 318.91666              (2000.0)            P               Q                  
n   0.45260531     Peri.  249.46873     +0.13903341     -0.98735545             
a   1.6800529      Node   193.24453     +0.98633714     +0.14493058             
e   0.3655528      Incl.   19.41327     +0.08836713     -0.06422098             
P   2.18           H   20.95          G   0.15           U   0                  
Residuals in seconds of arc
991011 691  0.2+  0.1+    230917 691  0.1+  0.2+    231015 G96  0.0   0.2-
991011 691  0.2+  0.2-    230917 691  0.2-  0.2+    231015 G96  0.2+  0.0
991011 691  0.1-  0.2-    230920 691  0.1-  0.6+    231015 G96  0.1-  0.1-
991012 557  0.9-  0.3-    230920 691  0.2-  0.4+    231015 703  0.1+  0.8-
991012 557  0.7-  0.8+    230925 B88  0.0   0.8+    231015 703  0.6-  0.1-
991012 557  0.1+  0.5-    230925 B88  0.0   0.2+    231015 703  0.0   1.4-
110331 F51  0.1-  0.1+    230925 B88  0.2-  0.5+    231017 703  0.1-  0.7+
110331 F51  0.1-  0.0     230926 B88  0.4+  0.1-    231017 703  0.2+  0.2-
110331 F51  0.1-  0.0     230926 B88  0.3+  0.1+    231017 703  0.5+  0.1+
110405 G96  0.1-  0.0     230926 B88  0.1-  0.5-    231017 703  0.4-  0.3+
110405 G96  0.2+  0.3+    230927 B88  0.3+  0.1+    231019 U52  0.1-  0.4-
110405 G96  0.1+  0.0     230927 B88  0.2-  0.1+    231019 U52  0.5+  0.7-
110405 G96  0.0   0.3+    230927 B88  0.6-  0.1+    231019 U52  1.1-  0.7-
230908 F51  0.1-  0.1+    231005 G96  0.0   0.0     231021 U52  0.4+  0.4+
230908 F51  0.0   0.0     231005 G96  0.1-  0.1+    231021 U52  0.0   0.7-
230908 F51  0.1-  0.0     231005 G96  0.0   0.1+    231021 U52  0.5-  0.1-
230908 F51  0.1-  0.1+    231005 G96  0.2+  0.1-    231027 F51  0.1-  0.1-
230908 F51  0.1-  0.0     231007 H21  0.2-  0.2+    231027 F51  0.1+  0.3-
230908 F51  0.0   0.1+    231007 H21  0.1-  0.3+    231027 F51  0.2-  0.3+
230909 204  0.1-  0.2-    231007 H21  0.7-  0.1+    231027 F51  0.1-  0.1+
230909 204  0.0   0.0     231007 H21  0.1-  0.1+    231027 F52  0.1-  0.2+
230909 204  0.0   0.0     231007 H21  0.2+  0.1+    231027 F52  0.1-  0.4+
230911 033  0.3+  0.0     231007 H21  0.3+  0.1+    231027 F52  0.1+  0.2-
230911 033  0.0   0.2+    231009 703  0.2-  0.2-    231027 F52  0.1-  0.1+
230911 033  0.2-  0.3+    231009 703  0.0   0.2-    231102 W94  0.9-  0.5-
230915 G96  0.1-  0.2-    231009 703  0.1+  1.0+    231102 W94  0.2-  0.3-
230915 G96  0.5+  0.0     231009 703  1.1-  1.0+    231102 W94  0.2-  0.4-
230915 G96  0.0   0.0     231013 U52  0.0   0.1+    231103 L87  1.1+  1.2+
230915 G96  0.2+  0.1+    231013 U52  0.5+  0.5-    231103 L87  0.1-  0.4+
230915 F52  0.1-  0.1-    231013 U52  0.5+  0.1-    231103 L87  2.0+  0.4-
230915 F52  0.1+  0.0     231013 F51  0.0   0.0     231103 L87  0.3-  1.1-
230915 F52  0.1-  0.1+    231013 F51  0.0   0.0     231103 L87  0.5+  0.3-
230915 F52  0.1-  0.1+    231013 F51  0.0   0.1+    231103 L87  0.5+  0.5+
230917 691  0.1-  0.4+    231015 G96  0.2+  0.1-
Ephemeris:
1999 TJ10                a,e,i = 1.68, 0.37, 19                  q = 1.0659
Date    TT    R. A. (2000) Decl.     Delta      r    Elong.  Phase     V
2023 10 05    02 53 19.8 +08 37 31   0.2924  1.2554   146.9    25.8    20.0
...
2023 10 20    03 34 52.2 -12 14 00   0.2312  1.1890   143.1    30.2    19.5
...
2023 10 28    03 59 41.2 -25 25 41   0.2237  1.1577   132.9    39.0    19.6
...
2023 11 03    04 19 24.3 -34 33 51   0.2285  1.1366   124.2    46.2    19.8
2023 11 04    04 22 45.7 -35 57 37   0.2300  1.1332   122.8    47.3    19.8
2023 11 05    04 26 08.0 -37 18 51   0.2316  1.1300   121.5    48.5    19.9
...
2023 11 11    04 46 36.2 -44 29 55   0.2446  1.1120   113.9    54.5    20.1
...
2023 11 19    05 14 03.6 -51 36 10   0.2670  1.0922   105.9    60.5    20.4
...
2023 12 04    06 03 21.5 -58 58 39   0.3115  1.0695    97.0    66.2    20.9
M. P. C. Staff               (C) Copyright 2023 MPC           M.P.E.C. 2023-V31
    
    
More information about the Iaude
mailing list